Year,Month,Day,Hour,Minute,Value (Times are PST for temperature in C)
2008,08,15,00,01,21.90
2008,08,15,00,02,21.90
2008,08,15,00,03,21.80
2008,08,15,00,04,21.80
2008,08,15,00,05,21.80
2008,08,15,00,06,21.70
2008,08,15,00,07,21.70
2008,08,15,00,09,21.60
2008,08,15,00,10,21.60
2008,08,15,00,11,21.60
2008,08,15,00,12,21.60
2008,08,15,00,14,21.70
2008,08,15,00,16,21.70
2008,08,15,00,17,21.70
2008,08,15,00,18,21.70
2008,08,15,00,19,21.80
2008,08,15,00,21,21.80
2008,08,15,00,22,21.90
2008,08,15,00,23,21.90
2008,08,15,00,24,22.00
2008,08,15,00,26,22.10
2008,08,15,00,27,22.10
2008,08,15,00,29,22.10
2008,08,15,00,30,22.20
2008,08,15,00,31,22.20
2008,08,15,00,32,22.20
2008,08,15,00,33,22.30
2008,08,15,00,34,22.30
2008,08,15,00,35,22.30
2008,08,15,00,37,22.30
2008,08,15,00,38,22.30
2008,08,15,00,39,22.30
2008,08,15,00,40,22.20
2008,08,15,00,41,22.20
2008,08,15,00,43,22.10
2008,08,15,00,45,22.10
2008,08,15,00,46,22.00
2008,08,15,00,48,21.80
2008,08,15,00,49,21.80
2008,08,15,00,50,21.70
2008,08,15,00,51,21.60
2008,08,15,00,53,21.50
2008,08,15,00,54,21.40
2008,08,15,00,55,21.30
2008,08,15,00,56,21.30
2008,08,15,00,57,21.30
2008,08,15,00,58,21.30
2008,08,15,00,59,21.20
2008,08,15,01,00,21.20
2008,08,15,01,01,21.10
2008,08,15,01,02,21.10
2008,08,15,01,03,21.10
2008,08,15,01,04,21.00
2008,08,15,01,05,21.00
2008,08,15,01,06,21.00
2008,08,15,01,07,21.00
2008,08,15,01,08,21.00
2008,08,15,01,09,21.10
2008,08,15,01,10,21.10
2008,08,15,01,11,21.10
2008,08,15,01,12,21.10
2008,08,15,01,13,21.20
2008,08,15,01,14,21.10
2008,08,15,01,15,21.20
2008,08,15,01,16,21.20
2008,08,15,01,17,21.20
2008,08,15,01,18,21.20
2008,08,15,01,19,21.20
2008,08,15,01,20,21.20
2008,08,15,01,21,21.10
2008,08,15,01,22,21.10
2008,08,15,01,23,21.00
2008,08,15,01,24,20.90
2008,08,15,01,25,20.90
2008,08,15,01,26,20.80
2008,08,15,01,27,20.80
2008,08,15,01,28,20.80
2008,08,15,01,29,20.70
2008,08,15,01,30,20.70
2008,08,15,01,31,20.70
2008,08,15,01,32,20.60
2008,08,15,01,33,20.60
2008,08,15,01,34,20.60
2008,08,15,01,35,20.60
2008,08,15,01,36,20.40
2008,08,15,01,37,20.40
2008,08,15,01,38,20.40
2008,08,15,01,39,20.30
2008,08,15,01,40,20.30
2008,08,15,01,41,20.30
2008,08,15,01,42,20.20
2008,08,15,01,43,20.20
2008,08,15,01,44,20.20
2008,08,15,01,45,20.20
2008,08,15,01,46,20.20
2008,08,15,01,47,20.20
2008,08,15,01,48,20.20
2008,08,15,01,49,20.20
2008,08,15,01,50,20.10
2008,08,15,01,51,20.10
2008,08,15,01,52,20.10
2008,08,15,01,53,20.10
2008,08,15,01,54,20.10
2008,08,15,01,55,20.10
2008,08,15,01,56,20.10
2008,08,15,01,57,20.10
2008,08,15,01,58,20.10
2008,08,15,01,59,20.10
2008,08,15,02,00,20.10
2008,08,15,02,01,20.10
2008,08,15,02,02,20.10
2008,08,15,02,03,20.10
2008,08,15,02,04,20.10
2008,08,15,02,05,20.10
2008,08,15,02,06,20.10
2008,08,15,02,07,20.00
2008,08,15,02,08,20.00
2008,08,15,02,09,19.90
2008,08,15,02,10,19.90
2008,08,15,02,11,19.90
2008,08,15,02,12,19.90
2008,08,15,02,13,19.90
2008,08,15,02,14,19.90
2008,08,15,02,15,19.90
2008,08,15,02,16,19.90
2008,08,15,02,17,19.90
2008,08,15,02,18,20.10
2008,08,15,02,19,20.10
2008,08,15,02,21,20.20
2008,08,15,02,22,20.30
2008,08,15,02,23,20.40
2008,08,15,02,24,20.40
2008,08,15,02,25,20.40
2008,08,15,02,26,20.50
2008,08,15,02,27,20.60
2008,08,15,02,28,20.60
2008,08,15,02,29,20.60
2008,08,15,02,30,20.70
2008,08,15,02,31,20.70
2008,08,15,02,32,20.70
2008,08,15,02,33,20.60
2008,08,15,02,35,20.60
2008,08,15,02,36,20.50
2008,08,15,02,37,20.40
2008,08,15,02,38,20.40
2008,08,15,02,39,20.30
2008,08,15,02,40,20.30
2008,08,15,02,41,20.30
2008,08,15,02,42,20.20
2008,08,15,02,43,20.20
2008,08,15,02,44,20.10
2008,08,15,02,45,20.10
2008,08,15,02,46,19.90
2008,08,15,02,47,19.90
2008,08,15,02,48,19.80
2008,08,15,02,49,19.70
2008,08,15,02,50,19.60
2008,08,15,02,51,19.60
2008,08,15,02,52,19.60
2008,08,15,02,53,19.40
2008,08,15,02,54,19.40
2008,08,15,02,55,19.40
2008,08,15,02,56,19.30
2008,08,15,02,57,19.30
2008,08,15,02,58,19.20
2008,08,15,02,59,19.20
2008,08,15,03,00,19.10
2008,08,15,03,01,19.10
2008,08,15,03,02,19.00
2008,08,15,03,03,18.90
2008,08,15,03,04,18.90
2008,08,15,03,05,18.90
2008,08,15,03,06,18.80
2008,08,15,03,07,18.80
2008,08,15,03,08,18.80
2008,08,15,03,09,18.90
2008,08,15,03,10,18.90
2008,08,15,03,11,18.90
2008,08,15,03,12,19.00
2008,08,15,03,13,19.10
2008,08,15,03,14,19.10
2008,08,15,03,15,19.10
2008,08,15,03,16,19.10
2008,08,15,03,17,19.20
2008,08,15,03,18,19.20
2008,08,15,03,19,19.20
2008,08,15,03,20,19.20
2008,08,15,03,21,19.20
2008,08,15,03,22,19.10
2008,08,15,03,23,19.10
2008,08,15,03,24,19.00
2008,08,15,03,25,18.90
2008,08,15,03,26,18.90
2008,08,15,03,27,18.90
2008,08,15,03,28,18.90
2008,08,15,03,29,18.90
2008,08,15,03,30,19.10
2008,08,15,03,31,19.10
2008,08,15,03,32,19.20
2008,08,15,03,34,19.20
2008,08,15,03,35,19.20
2008,08,15,03,36,19.30
2008,08,15,03,37,19.30
2008,08,15,03,38,19.30
2008,08,15,03,39,19.40
2008,08,15,03,40,19.40
2008,08,15,03,41,19.40
2008,08,15,03,42,19.40
2008,08,15,03,43,19.40
2008,08,15,03,44,19.40
2008,08,15,03,45,19.40
2008,08,15,03,46,19.40
2008,08,15,03,47,19.40
2008,08,15,03,48,19.40
2008,08,15,03,49,19.30
2008,08,15,03,50,19.30
2008,08,15,03,51,19.30
2008,08,15,03,52,19.30
2008,08,15,03,53,19.30
2008,08,15,03,54,19.30
2008,08,15,03,55,19.30
2008,08,15,03,56,19.30
2008,08,15,03,57,19.20
2008,08,15,03,58,19.20
2008,08,15,03,59,19.10
2008,08,15,04,00,19.00
2008,08,15,04,01,18.90
2008,08,15,04,02,18.90
2008,08,15,04,03,18.80
2008,08,15,04,04,18.80
2008,08,15,04,05,18.80
2008,08,15,04,06,18.80
2008,08,15,04,07,18.80
2008,08,15,04,08,18.80
2008,08,15,04,09,18.80
2008,08,15,04,10,18.80
2008,08,15,04,11,18.80
2008,08,15,04,12,18.80
2008,08,15,04,13,18.90
2008,08,15,04,14,18.80
2008,08,15,04,15,18.80
2008,08,15,04,16,18.80
2008,08,15,04,17,18.70
2008,08,15,04,18,18.60
2008,08,15,04,20,18.60
2008,08,15,04,21,18.50
2008,08,15,04,22,18.50
2008,08,15,04,23,18.50
2008,08,15,04,24,18.50
2008,08,15,04,25,18.60
2008,08,15,04,26,18.60
2008,08,15,04,27,18.60
2008,08,15,04,28,18.70
2008,08,15,04,29,18.70
2008,08,15,04,30,18.70
2008,08,15,04,31,18.70
2008,08,15,04,32,18.60
2008,08,15,04,33,18.70
2008,08,15,04,34,18.70
2008,08,15,04,35,18.70
2008,08,15,04,36,18.70
2008,08,15,04,37,18.70
2008,08,15,04,38,18.70
2008,08,15,04,39,18.70
2008,08,15,04,40,18.70
2008,08,15,04,41,18.70
2008,08,15,04,42,18.70
2008,08,15,04,43,18.70
2008,08,15,04,44,18.70
2008,08,15,04,45,18.70
2008,08,15,04,46,18.60
2008,08,15,04,47,18.60
2008,08,15,04,48,18.60
2008,08,15,04,49,18.60
2008,08,15,04,50,18.60
2008,08,15,04,51,18.70
2008,08,15,04,52,18.70
2008,08,15,04,53,18.70
2008,08,15,04,54,18.70
2008,08,15,04,55,18.80
2008,08,15,04,56,18.80
2008,08,15,04,57,18.80
2008,08,15,04,58,18.80
2008,08,15,04,59,18.80
2008,08,15,05,00,18.80
2008,08,15,05,01,18.80
2008,08,15,05,02,18.70
2008,08,15,05,03,18.70
2008,08,15,05,04,18.60
2008,08,15,05,05,18.50
2008,08,15,05,06,18.40
2008,08,15,05,07,18.30
2008,08,15,05,08,18.30
2008,08,15,05,09,18.20
2008,08,15,05,10,18.20
2008,08,15,05,11,18.20
2008,08,15,05,12,18.20
2008,08,15,05,13,18.20
2008,08,15,05,14,18.20
2008,08,15,05,15,18.30
2008,08,15,05,16,18.30
2008,08,15,05,17,18.30
2008,08,15,05,18,18.30
2008,08,15,05,19,18.30
2008,08,15,05,20,18.30
2008,08,15,05,21,18.30
2008,08,15,05,22,18.40
2008,08,15,05,23,18.30
2008,08,15,05,24,18.40
2008,08,15,05,25,18.30
2008,08,15,05,26,18.30
2008,08,15,05,27,18.30
2008,08,15,05,28,18.30
2008,08,15,05,29,18.30
2008,08,15,05,30,18.30
2008,08,15,05,31,18.30
2008,08,15,05,32,18.30
2008,08,15,05,33,18.30
2008,08,15,05,34,18.30
2008,08,15,05,35,18.30
2008,08,15,05,36,18.30
2008,08,15,05,37,18.30
2008,08,15,05,38,18.40
2008,08,15,05,39,18.40
2008,08,15,05,40,18.40
2008,08,15,05,41,18.30
2008,08,15,05,42,18.40
2008,08,15,05,43,18.30
2008,08,15,05,44,18.30
2008,08,15,05,45,18.30
2008,08,15,05,46,18.30
2008,08,15,05,47,18.20
2008,08,15,05,48,18.20
2008,08,15,05,49,18.10
2008,08,15,05,50,18.00
2008,08,15,05,51,17.90
2008,08,15,05,52,17.90
2008,08,15,05,53,18.00
2008,08,15,05,54,18.00
2008,08,15,05,55,18.00
2008,08,15,05,56,17.90
2008,08,15,05,57,17.90
2008,08,15,05,58,17.80
2008,08,15,05,59,17.70
2008,08,15,06,00,17.70
2008,08,15,06,01,17.60
2008,08,15,06,02,17.60
2008,08,15,06,03,17.70
2008,08,15,06,04,17.70
2008,08,15,06,05,17.70
2008,08,15,06,06,17.80
2008,08,15,06,07,17.80
2008,08,15,06,08,17.90
2008,08,15,06,09,17.90
2008,08,15,06,10,17.80
2008,08,15,06,11,17.90
2008,08,15,06,12,17.90
2008,08,15,06,13,18.00
2008,08,15,06,14,18.10
2008,08,15,06,15,18.10
2008,08,15,06,16,18.20
2008,08,15,06,17,18.20
2008,08,15,06,18,18.20
2008,08,15,06,19,18.20
2008,08,15,06,20,18.30
2008,08,15,06,21,18.30
2008,08,15,06,22,18.40
2008,08,15,06,23,18.40
2008,08,15,06,24,18.40
2008,08,15,06,25,18.50
2008,08,15,06,26,18.60
2008,08,15,06,27,18.60
2008,08,15,06,28,18.60
2008,08,15,06,29,18.60
2008,08,15,06,30,18.60
2008,08,15,06,31,18.40
2008,08,15,06,32,18.40
2008,08,15,06,34,18.20
2008,08,15,06,35,18.20
2008,08,15,06,36,18.10
2008,08,15,06,37,18.10
2008,08,15,06,38,18.10
2008,08,15,06,39,18.20
2008,08,15,06,40,18.20
2008,08,15,06,41,18.20
2008,08,15,06,42,18.20
2008,08,15,06,43,18.20
2008,08,15,06,44,18.20
2008,08,15,06,45,18.20
2008,08,15,06,46,18.20
2008,08,15,06,47,18.20
2008,08,15,06,48,18.30
2008,08,15,06,49,18.30
2008,08,15,06,50,18.40
2008,08,15,06,51,18.40
2008,08,15,06,52,18.40
2008,08,15,06,53,18.40
2008,08,15,06,54,18.40
2008,08,15,06,55,18.30
2008,08,15,06,56,18.20
2008,08,15,06,57,18.20
2008,08,15,06,58,18.10
2008,08,15,06,59,18.10
2008,08,15,07,00,18.10
2008,08,15,07,01,18.10
2008,08,15,07,02,18.10
2008,08,15,07,03,18.10
2008,08,15,07,04,18.10
2008,08,15,07,05,18.10
2008,08,15,07,06,18.10
2008,08,15,07,07,18.10
2008,08,15,07,08,17.90
2008,08,15,07,09,17.90
2008,08,15,07,10,17.80
2008,08,15,07,11,17.70
2008,08,15,07,12,17.70
2008,08,15,07,13,17.60
2008,08,15,07,14,17.50
2008,08,15,07,15,17.40
2008,08,15,07,16,17.40
2008,08,15,07,17,17.30
2008,08,15,07,18,17.30
2008,08,15,07,19,17.20
2008,08,15,07,20,17.20
2008,08,15,07,21,17.20
2008,08,15,07,22,17.20
2008,08,15,07,23,17.20
2008,08,15,07,24,17.20
2008,08,15,07,25,17.20
2008,08,15,07,26,17.20
2008,08,15,07,27,17.20
2008,08,15,07,28,17.20
2008,08,15,07,29,17.20
2008,08,15,07,30,17.10
2008,08,15,07,31,17.10
2008,08,15,07,32,17.10
2008,08,15,07,33,17.10
2008,08,15,07,34,17.10
2008,08,15,07,35,17.10
2008,08,15,07,36,17.20
2008,08,15,07,37,17.20
2008,08,15,07,38,17.20
2008,08,15,07,39,17.20
2008,08,15,07,40,17.20
2008,08,15,07,41,17.30
2008,08,15,07,42,17.30
2008,08,15,07,43,17.40
2008,08,15,07,44,17.60
2008,08,15,07,45,17.70
2008,08,15,07,46,17.80
2008,08,15,07,47,17.90
2008,08,15,07,48,18.10
2008,08,15,07,49,18.20
2008,08,15,07,50,18.30
2008,08,15,07,51,18.40
2008,08,15,07,52,18.50
2008,08,15,07,53,18.60
2008,08,15,07,54,18.70
2008,08,15,07,55,18.70
2008,08,15,07,56,18.70
2008,08,15,07,57,18.70
2008,08,15,07,58,18.80
2008,08,15,07,59,18.80
2008,08,15,08,00,18.90
2008,08,15,08,01,19.00
2008,08,15,08,02,19.10
2008,08,15,08,03,19.20
2008,08,15,08,04,19.30
2008,08,15,08,05,19.30
2008,08,15,08,06,19.40
2008,08,15,08,07,19.50
2008,08,15,08,08,19.60
2008,08,15,08,09,19.70
2008,08,15,08,10,19.70
2008,08,15,08,11,19.80
2008,08,15,08,12,19.90
2008,08,15,08,13,19.90
2008,08,15,08,14,20.00
2008,08,15,08,15,20.00
2008,08,15,08,16,20.10
2008,08,15,08,17,20.10
2008,08,15,08,18,20.20
2008,08,15,08,19,20.20
2008,08,15,08,20,20.30
2008,08,15,08,21,20.30
2008,08,15,08,22,20.30
2008,08,15,08,23,20.30
2008,08,15,08,24,20.30
2008,08,15,08,25,20.30
2008,08,15,08,26,20.30
2008,08,15,08,27,20.30
2008,08,15,08,28,20.20
2008,08,15,08,29,20.20
2008,08,15,08,30,20.10
2008,08,15,08,31,20.10
2008,08,15,08,32,20.10
2008,08,15,08,33,20.20
2008,08,15,08,34,20.20
2008,08,15,08,35,20.20
2008,08,15,08,36,20.20
2008,08,15,08,37,20.20
2008,08,15,08,38,20.30
2008,08,15,08,39,20.30
2008,08,15,08,40,20.30
2008,08,15,08,41,20.40
2008,08,15,08,42,20.40
2008,08,15,08,43,20.50
2008,08,15,08,44,20.60
2008,08,15,08,45,20.60
2008,08,15,08,46,20.60
2008,08,15,08,47,20.70
2008,08,15,08,48,20.70
2008,08,15,08,49,20.80
2008,08,15,08,50,20.80
2008,08,15,08,51,20.80
2008,08,15,08,52,20.90
2008,08,15,08,53,21.00
2008,08,15,08,54,21.00
2008,08,15,08,55,21.10
2008,08,15,08,56,21.10
2008,08,15,08,57,21.20
2008,08,15,08,58,21.20
2008,08,15,08,59,21.30
2008,08,15,09,00,21.30
2008,08,15,09,01,21.30
2008,08,15,09,02,21.40
2008,08,15,09,03,21.40
2008,08,15,09,04,21.40
2008,08,15,09,05,21.40
2008,08,15,09,06,21.40
2008,08,15,09,07,21.40
2008,08,15,09,08,21.50
2008,08,15,09,09,21.50
2008,08,15,09,10,21.50
2008,08,15,09,11,21.40
2008,08,15,09,12,21.40
2008,08,15,09,13,21.40
2008,08,15,09,14,21.40
2008,08,15,09,15,21.40
2008,08,15,09,16,21.40
2008,08,15,09,17,21.40
2008,08,15,09,18,21.30
2008,08,15,09,19,21.30
2008,08,15,09,20,21.30
2008,08,15,09,21,21.40
2008,08,15,09,22,21.40
2008,08,15,09,23,21.40
2008,08,15,09,24,21.40
2008,08,15,09,25,21.40
2008,08,15,09,26,21.30
2008,08,15,09,27,21.30
2008,08,15,09,28,21.40
2008,08,15,09,29,21.40
2008,08,15,09,30,21.40
2008,08,15,09,31,21.40
2008,08,15,09,32,21.50
2008,08,15,09,33,21.60
2008,08,15,09,34,21.70
2008,08,15,09,35,21.80
2008,08,15,09,36,21.90
2008,08,15,09,37,22.10
2008,08,15,09,38,22.20
2008,08,15,09,39,22.30
2008,08,15,09,40,22.40
2008,08,15,09,41,22.60
2008,08,15,09,42,22.70
2008,08,15,09,43,22.70
2008,08,15,09,44,22.70
2008,08,15,09,45,22.70
2008,08,15,09,46,22.70
2008,08,15,09,47,22.80
2008,08,15,09,48,22.80
2008,08,15,09,49,22.90
2008,08,15,09,50,22.90
2008,08,15,09,51,23.10
2008,08,15,09,52,23.20
2008,08,15,09,53,23.20
2008,08,15,09,54,23.30
2008,08,15,09,55,23.40
2008,08,15,09,56,23.40
2008,08,15,09,57,23.40
2008,08,15,09,58,23.50
2008,08,15,09,59,23.50
2008,08,15,10,00,23.40
2008,08,15,10,01,23.40
2008,08,15,10,02,23.30
2008,08,15,10,03,23.30
2008,08,15,10,04,23.30
2008,08,15,10,05,23.30
2008,08,15,10,06,23.30
2008,08,15,10,07,23.30
2008,08,15,10,08,23.40
2008,08,15,10,09,23.40
2008,08,15,10,10,23.40
2008,08,15,10,11,23.40
2008,08,15,10,12,23.60
2008,08,15,10,13,23.60
2008,08,15,10,14,23.60
2008,08,15,10,15,23.60
2008,08,15,10,16,23.60
2008,08,15,10,17,23.70
2008,08,15,10,18,23.70
2008,08,15,10,19,23.70
2008,08,15,10,20,23.70
2008,08,15,10,21,23.70
2008,08,15,10,22,23.70
2008,08,15,10,23,23.70
2008,08,15,10,24,23.70
2008,08,15,10,25,23.70
2008,08,15,10,26,23.70
2008,08,15,10,27,23.80
2008,08,15,10,28,23.80
2008,08,15,10,29,23.90
2008,08,15,10,30,23.90
2008,08,15,10,31,24.00
2008,08,15,10,32,24.10
2008,08,15,10,33,24.20
2008,08,15,10,34,24.20
2008,08,15,10,35,24.20
2008,08,15,10,36,24.30
2008,08,15,10,37,24.30
2008,08,15,10,38,24.30
2008,08,15,10,39,24.40
2008,08,15,10,40,24.40
2008,08,15,10,41,24.50
2008,08,15,10,42,24.60
2008,08,15,10,43,24.60
2008,08,15,10,44,24.60
2008,08,15,10,45,24.60
2008,08,15,10,46,24.60
2008,08,15,10,47,24.60
2008,08,15,10,48,24.60
2008,08,15,10,49,24.60
2008,08,15,10,50,24.60
2008,08,15,10,51,24.60
2008,08,15,10,52,24.60
2008,08,15,10,53,24.60
2008,08,15,10,54,24.60
2008,08,15,10,55,24.60
2008,08,15,10,56,24.60
2008,08,15,10,57,24.60
2008,08,15,10,58,24.60
2008,08,15,10,59,24.60
2008,08,15,11,00,24.60
2008,08,15,11,01,24.70
2008,08,15,11,02,24.70
2008,08,15,11,03,24.70
2008,08,15,11,04,24.70
2008,08,15,11,05,24.80
2008,08,15,11,06,24.80
2008,08,15,11,07,24.80
2008,08,15,11,08,24.80
2008,08,15,11,09,24.80
2008,08,15,11,10,24.80
2008,08,15,11,11,24.80
2008,08,15,11,12,24.80
2008,08,15,11,13,24.80
2008,08,15,11,14,24.80
2008,08,15,11,15,24.80
2008,08,15,11,16,24.90
2008,08,15,11,17,24.80
2008,08,15,11,18,24.80
2008,08,15,11,19,24.80
2008,08,15,11,20,24.80
2008,08,15,11,21,24.80
2008,08,15,11,22,24.80
2008,08,15,11,23,24.80
2008,08,15,11,24,24.80
2008,08,15,11,25,24.80
2008,08,15,11,26,24.80
2008,08,15,11,27,24.80
2008,08,15,11,28,24.80
2008,08,15,11,29,24.80
2008,08,15,11,30,24.80
2008,08,15,11,31,24.80
2008,08,15,11,32,24.80
2008,08,15,11,33,24.80
2008,08,15,11,34,24.90
2008,08,15,11,35,24.80
2008,08,15,11,36,24.80
2008,08,15,11,37,24.80
2008,08,15,11,38,24.80
2008,08,15,11,39,24.80
2008,08,15,11,40,24.80
2008,08,15,11,41,24.80
2008,08,15,11,42,24.80
2008,08,15,11,43,24.80
2008,08,15,11,44,24.80
2008,08,15,11,45,24.80
2008,08,15,11,46,24.80
2008,08,15,11,47,24.80
2008,08,15,11,48,24.80
2008,08,15,11,49,24.80
2008,08,15,11,50,24.90
2008,08,15,11,51,24.90
2008,08,15,11,52,24.90
2008,08,15,11,53,24.90
2008,08,15,11,54,24.90
2008,08,15,11,55,24.90
2008,08,15,11,56,24.90
2008,08,15,11,57,24.90
2008,08,15,11,58,24.90
2008,08,15,11,59,24.90
2008,08,15,12,00,24.90
2008,08,15,12,01,24.80
2008,08,15,12,02,24.80
2008,08,15,12,03,24.70
2008,08,15,12,04,24.70
2008,08,15,12,05,24.70
2008,08,15,12,06,24.70
2008,08,15,12,07,24.70
2008,08,15,12,08,24.70
2008,08,15,12,09,24.70
2008,08,15,12,10,24.70
2008,08,15,12,11,24.80
2008,08,15,12,12,24.80
2008,08,15,12,13,24.90
2008,08,15,12,14,24.90
2008,08,15,12,15,25.00
2008,08,15,12,16,25.10
2008,08,15,12,17,25.10
2008,08,15,12,18,25.20
2008,08,15,12,19,25.20
2008,08,15,12,20,25.30
2008,08,15,12,21,25.30
2008,08,15,12,22,25.40
2008,08,15,12,23,25.60
2008,08,15,12,24,25.60
2008,08,15,12,25,25.70
2008,08,15,12,26,25.80
2008,08,15,12,27,25.80
2008,08,15,12,28,25.70
2008,08,15,12,29,25.80
2008,08,15,12,30,25.80
2008,08,15,12,31,25.90
2008,08,15,12,32,25.90
2008,08,15,12,33,25.90
2008,08,15,12,34,26.10
2008,08,15,12,35,26.20
2008,08,15,12,36,26.30
2008,08,15,12,37,26.40
2008,08,15,12,38,26.50
2008,08,15,12,39,26.70
2008,08,15,12,40,26.80
2008,08,15,12,41,26.90
2008,08,15,12,42,27.00
2008,08,15,12,43,27.10
2008,08,15,12,44,27.10
2008,08,15,12,45,27.10
2008,08,15,12,46,26.90
2008,08,15,12,47,26.90
2008,08,15,12,48,26.90
2008,08,15,12,49,26.80
2008,08,15,12,50,26.80
2008,08,15,12,51,26.70
2008,08,15,12,52,26.60
2008,08,15,12,53,26.60
2008,08,15,12,54,26.70
2008,08,15,12,55,26.70
2008,08,15,12,56,26.70
2008,08,15,12,57,26.70
2008,08,15,12,58,26.80
2008,08,15,12,59,26.80
2008,08,15,13,00,26.90
2008,08,15,13,01,26.90
2008,08,15,13,02,27.00
2008,08,15,13,03,27.10
2008,08,15,13,04,27.20
2008,08,15,13,05,27.30
2008,08,15,13,06,27.40
2008,08,15,13,07,27.60
2008,08,15,13,08,27.70
2008,08,15,13,09,27.80
2008,08,15,13,10,27.90
2008,08,15,13,11,28.10
2008,08,15,13,12,28.20
2008,08,15,13,13,28.30
2008,08,15,13,14,28.40
2008,08,15,13,15,28.60
2008,08,15,13,16,28.70
2008,08,15,13,17,28.90
2008,08,15,13,18,29.00
2008,08,15,13,19,29.10
2008,08,15,13,20,29.20
2008,08,15,13,21,29.30
2008,08,15,13,22,29.30
2008,08,15,13,23,29.40
2008,08,15,13,24,29.60
2008,08,15,13,25,29.60
2008,08,15,13,26,29.70
2008,08,15,13,27,29.80
2008,08,15,13,28,29.90
2008,08,15,13,29,29.90
2008,08,15,13,30,30.10
2008,08,15,13,31,30.10
2008,08,15,13,32,30.10
2008,08,15,13,33,30.20
2008,08,15,13,34,30.20
2008,08,15,13,35,30.20
2008,08,15,13,36,30.30
2008,08,15,13,37,30.30
2008,08,15,13,38,30.40
2008,08,15,13,39,30.40
2008,08,15,13,40,30.60
2008,08,15,13,41,30.60
2008,08,15,13,42,30.60
2008,08,15,13,43,30.60
2008,08,15,13,44,30.50
2008,08,15,13,45,30.40
2008,08,15,13,46,30.50
2008,08,15,13,47,30.60
2008,08,15,13,48,30.60
2008,08,15,13,49,30.60
2008,08,15,13,50,30.70
2008,08,15,13,51,30.80
2008,08,15,13,52,30.80
2008,08,15,13,53,30.90
2008,08,15,13,54,31.10
2008,08,15,13,55,31.10
2008,08,15,13,56,31.20
2008,08,15,13,57,31.20
2008,08,15,13,58,31.30
2008,08,15,13,59,31.40
2008,08,15,14,00,31.50
2008,08,15,14,01,31.60
2008,08,15,14,02,31.60
2008,08,15,14,03,31.70
2008,08,15,14,04,31.70
2008,08,15,14,05,31.80
2008,08,15,14,06,31.80
2008,08,15,14,07,31.90
2008,08,15,14,08,32.00
2008,08,15,14,09,32.10
2008,08,15,14,10,32.20
2008,08,15,14,11,32.30
2008,08,15,14,12,32.40
2008,08,15,14,13,32.50
2008,08,15,14,14,32.60
2008,08,15,14,15,32.70
2008,08,15,14,16,32.80
2008,08,15,14,17,32.90
2008,08,15,14,18,33.00
2008,08,15,14,19,33.10
2008,08,15,14,20,33.20
2008,08,15,14,21,33.20
2008,08,15,14,22,33.30
2008,08,15,14,23,33.40
2008,08,15,14,24,33.50
2008,08,15,14,25,33.60
2008,08,15,14,26,33.70
2008,08,15,14,27,33.80
2008,08,15,14,28,33.90
2008,08,15,14,29,33.90
2008,08,15,14,30,34.10
2008,08,15,14,31,34.10
2008,08,15,14,32,34.20
2008,08,15,14,33,34.30
2008,08,15,14,34,34.30
2008,08,15,14,35,34.40
2008,08,15,14,36,34.40
2008,08,15,14,37,34.40
2008,08,15,14,38,34.40
2008,08,15,14,39,34.50
2008,08,15,14,40,34.60
2008,08,15,14,41,34.60
2008,08,15,14,42,34.60
2008,08,15,14,43,34.70
2008,08,15,14,44,34.70
2008,08,15,14,45,34.80
2008,08,15,14,46,34.80
2008,08,15,14,47,34.90
2008,08,15,14,48,34.90
2008,08,15,14,49,34.90
2008,08,15,14,50,34.90
2008,08,15,14,51,34.90
2008,08,15,14,52,35.00
2008,08,15,14,53,35.10
2008,08,15,14,54,35.10
2008,08,15,14,55,35.20
2008,08,15,14,56,35.20
2008,08,15,14,57,35.20
2008,08,15,14,58,35.20
2008,08,15,14,59,35.20
2008,08,15,15,00,35.20
2008,08,15,15,01,35.30
2008,08,15,15,02,35.30
2008,08,15,15,03,35.30
2008,08,15,15,04,35.40
2008,08,15,15,05,35.40
2008,08,15,15,06,35.50
2008,08,15,15,07,35.60
2008,08,15,15,08,35.60
2008,08,15,15,09,35.70
2008,08,15,15,10,35.70
2008,08,15,15,11,35.70
2008,08,15,15,12,35.70
2008,08,15,15,13,35.70
2008,08,15,15,14,35.70
2008,08,15,15,15,35.80
2008,08,15,15,16,35.80
2008,08,15,15,17,35.80
2008,08,15,15,18,35.80
2008,08,15,15,19,35.90
2008,08,15,15,20,35.90
2008,08,15,15,21,35.90
2008,08,15,15,22,35.90
2008,08,15,15,23,35.90
2008,08,15,15,24,36.00
2008,08,15,15,25,36.00
2008,08,15,15,26,36.10
2008,08,15,15,27,36.00
2008,08,15,15,28,36.00
2008,08,15,15,29,36.00
2008,08,15,15,30,36.00
2008,08,15,15,31,35.90
2008,08,15,15,32,35.90
2008,08,15,15,33,35.90
2008,08,15,15,34,35.80
2008,08,15,15,35,35.80
2008,08,15,15,36,35.80
2008,08,15,15,37,35.80
2008,08,15,15,38,35.80
2008,08,15,15,39,35.80
2008,08,15,15,40,35.80
2008,08,15,15,41,35.80
2008,08,15,15,42,35.80
2008,08,15,15,43,35.80
2008,08,15,15,44,35.80
2008,08,15,15,45,35.80
2008,08,15,15,46,35.80
2008,08,15,15,47,35.80
2008,08,15,15,48,35.80
2008,08,15,15,49,35.80
2008,08,15,15,50,35.80
2008,08,15,15,51,35.80
2008,08,15,15,52,35.80
2008,08,15,15,53,35.90
2008,08,15,15,54,35.90
2008,08,15,15,55,35.90
2008,08,15,15,56,35.90
2008,08,15,15,57,35.90
2008,08,15,15,58,36.00
2008,08,15,15,59,36.00
2008,08,15,16,00,36.00
2008,08,15,16,01,36.10
2008,08,15,16,02,36.10
2008,08,15,16,03,36.20
2008,08,15,16,04,36.20
2008,08,15,16,05,36.20
2008,08,15,16,06,36.20
2008,08,15,16,07,36.20
2008,08,15,16,08,36.20
2008,08,15,16,09,36.20
2008,08,15,16,10,36.20
2008,08,15,16,11,36.20
2008,08,15,16,12,36.10
2008,08,15,16,13,36.10
2008,08,15,16,14,36.10
2008,08,15,16,15,36.10
2008,08,15,16,16,36.10
2008,08,15,16,17,36.10
2008,08,15,16,18,36.10
2008,08,15,16,19,36.10
2008,08,15,16,20,36.20
2008,08,15,16,21,36.20
2008,08,15,16,22,36.20
2008,08,15,16,23,36.30
2008,08,15,16,24,36.30
2008,08,15,16,25,36.30
2008,08,15,16,26,36.40
2008,08,15,16,27,36.30
2008,08,15,16,28,36.30
2008,08,15,16,29,36.30
2008,08,15,16,30,36.30
2008,08,15,16,31,36.30
2008,08,15,16,32,36.30
2008,08,15,16,33,36.30
2008,08,15,16,34,36.30
2008,08,15,16,35,36.30
2008,08,15,16,36,36.40
2008,08,15,16,37,36.40
2008,08,15,16,38,36.40
2008,08,15,16,39,36.40
2008,08,15,16,40,36.40
2008,08,15,16,41,36.50
2008,08,15,16,42,36.50
2008,08,15,16,43,36.60
2008,08,15,16,44,36.60
2008,08,15,16,45,36.60
2008,08,15,16,46,36.60
2008,08,15,16,47,36.60
2008,08,15,16,48,36.60
2008,08,15,16,49,36.70
2008,08,15,16,50,36.70
2008,08,15,16,51,36.70
2008,08,15,16,52,36.80
2008,08,15,16,53,36.80
2008,08,15,16,54,36.80
2008,08,15,16,55,36.80
2008,08,15,16,56,36.80
2008,08,15,16,57,36.80
2008,08,15,16,58,36.80
2008,08,15,16,59,36.80
2008,08,15,17,00,36.80
2008,08,15,17,01,36.80
2008,08,15,17,02,36.80
2008,08,15,17,03,36.70
2008,08,15,17,04,36.70
2008,08,15,17,05,36.70
2008,08,15,17,06,36.60
2008,08,15,17,07,36.60
2008,08,15,17,08,36.60
2008,08,15,17,09,36.50
2008,08,15,17,10,36.40
2008,08,15,17,11,36.40
2008,08,15,17,12,36.30
2008,08,15,17,13,36.30
2008,08,15,17,14,36.30
2008,08,15,17,15,36.20
2008,08,15,17,16,36.20
2008,08,15,17,17,36.20
2008,08,15,17,18,36.10
2008,08,15,17,19,36.10
2008,08,15,17,20,36.10
2008,08,15,17,21,36.10
2008,08,15,17,22,36.10
2008,08,15,17,23,36.00
2008,08,15,17,24,36.00
2008,08,15,17,25,36.00
2008,08,15,17,26,36.00
2008,08,15,17,27,36.00
2008,08,15,17,28,36.00
2008,08,15,17,29,36.00
2008,08,15,17,30,36.00
2008,08,15,17,31,36.00
2008,08,15,17,32,35.90
2008,08,15,17,33,35.90
2008,08,15,17,34,35.80
2008,08,15,17,35,35.80
2008,08,15,17,36,35.80